Retour au catalogue

STARLINK-30306

ActifCommunicationsVLEO
NORAD 57633·PAYLOAD·🇺🇸 United States

Lancé Aug 17, 2023 depuis Cape Canaveral Space Force Station

Loading…

Prochains Passages (prochaines 24 heures)

TLE

FraisSource: CelesTrak SupGP

Époque: Sep 14, 2026, 21:27 UTC

1 57633C 23122B   26257.89423611  .00014118  00000+0  51135-3 0  2579
2 57633  43.0010 104.1889 0001602 266.4906 353.8402 15.27570174    12

Suivez STARLINK-30306 en temps réel avec AllMySat

Download on the App Store